Regional Weather Roundup
Issued by NWS

Home | Current Version | Previous Version | Graphics & Text | Print | Product List | Glossary On
Versions: 1 2 3 4 5 6 7 8 9 10 11 12 13 14 15 16 17 18 19 20 21 22 23 24 25 26 27 28 29 30 31 32 33 34 35 36 37 38 39 40 41 42 43 44 45 46 47 48 49 50
000
ASUS45 KBOU 100407
RWRCO

WEATHER ROUNDUP FOR COLORADO
NATIONAL WEATHER SERVICE DENVER/BOULDER CO
900 PM MST TUE FEB 09 2016

NOTE: "FAIR" INDICATES FEW OR NO CLOUDS BELOW 12000 FEET WITH NO
SIGNIFICANT WEATHER AND/OR OBSTRUCTIONS TO VISIBILITY.

COZ001>005-013-030-031-100500-
...NORTHWEST COLORADO...

CITY           SKY/WX    TMP DP  RH WIND       PRES   REMARKS
CRAIG          CLOUDY     6   3  87 W5        30.47F WCI  -3
HAYDEN         CLOUDY    21  10  63 SE13      30.46S WCI   9
MEEKER         CLOUDY    13   8  81 NE3       30.46S
MOUNT WERNER   NOT AVBL
STEAMBOAT SPGS CLOUDY    17  14  88 CALM      30.48S
WALDEN         CLOUDY    16   9  73 SE6       30.45S WCI   7
$$

COZ006>008-011-100500-
...WEST CENTRAL VALLEYS...

CITY           SKY/WX    TMP DP  RH WIND       PRES   REMARKS
GRAND JUNCTION CLOUDY    30  24  78 E6        30.45S WCI  24
MONTROSE       CLOUDY    27  20  75 SE7       30.49R WCI  19
EAGLE          CLEAR     19  14  79 CALM      30.51F
RIFLE          CLOUDY    23  15  71 CALM      30.48S
DELTA          CLOUDY    31  26  80 E5        30.48R WCI  26
NUCLA          CLOUDY    32  23  69 E5        30.48R WCI  27
$$

COZ017>023-064>068-100500-
...SOUTHWEST COLORADO...

CITY           SKY/WX    TMP DP  RH WIND       PRES   REMARKS
DURANGO        CLOUDY    23  16  74 N3        30.41S
CORTEZ         CLOUDY    30  23  75 E10       30.39S WCI  21
PAGOSA SPRINGS CLOUDY    28  20  70 CALM      30.44R
TELLURIDE      CLOUDY    30  14  51 E5        30.51S WCI  25
WOLF CREEK PAS CLOUDY    28  -4  24 NE18      30.57S WCI  16
$$

COZ009-010-012-014-032>034-037-058>063-100500-
...CENTRAL COLORADO...

CITY           SKY/WX    TMP DP  RH WIND       PRES   REMARKS
ASPEN          CLOUDY    24  14  65 SW8       30.48S WCI  15
BUENA VISTA    CLOUDY    34  11  39 SW6       30.42S WCI  29
COPPER MTN     CLOUDY    28  -2  26 W18       30.53S WCI  16
BERTHOUD PASS  FAIR      18   9  68 NW14G20   30.52R WCI   4
COTTONWOOD PAS CLOUDY    37  -4  17 W16G22    30.47S
GUNNISON       CLOUDY     1 -15  46 CALM      30.56R
KREMMLING      CLOUDY     3   0  85 CALM      30.53S
LEADVILLE      CLOUDY    17   1  49 NE7       30.48S WCI   8
MONARCH PASS   CLOUDY    28   0  29 NW7       30.64S WCI  21
SALIDA         NOT AVBL
SUNLIGHT       CLOUDY    32   9  37 N3        30.58S
WILKERSON PASS CLOUDY    30  -4  22 N10G20    30.51S WCI  21
$$

COZ069>075-100500-
...SAN LUIS VALLEY/SANGRE DE CRISTO MOUNTAINS...

CITY           SKY/WX    TMP DP  RH WIND       PRES   REMARKS
ALAMOSA        CLOUDY    24  19  81 S5        30.44R WCI  18
LA VETA PASS   CLOUDY    30  12  47 MISG      30.47R
SAGUACHE       CLOUDY    25  18  74 N5        30.45S WCI  19
$$

COZ035-036-038>040-100500-
...NORTHERN COLORADO FRONT RANGE...

CITY           SKY/WX    TMP DP  RH WIND       PRES   REMARKS
DENVER INTL AP CLEAR     38  21  50 SW16      30.26F
DMNS CITY PARK   N/A     41  18  39 SE13      30.27S
AURORA         CLEAR     37  21  51 S12       30.28F
FRONT RANGE AP NOT AVBL
ERIE MUNI ARPT CLEAR     35  23  61 CALM      30.25F
BOULDER MUN AP CLEAR     39  21  48 CALM      30.24F
CENTENNIAL     CLOUDY    38  20  48 SW8       30.28F
BROOMFIELD     CLEAR     43  16  33 SW7       30.27F
FORT COLLINS   CLOUDY    43  21  42 S5        30.25S
LONGMONT       CLOUDY    34  24  66 W5        30.27S WCI  30
$$

COZ041-046-047-076>085-087-088-100500-
...PIKES PEAK/PALMER DIVIDE AND SOUTHERN FOOTHILLS...

CITY           SKY/WX    TMP DP  RH WIND       PRES   REMARKS
COLO. SPRINGS  CLOUDY    33  18  53 SE5       30.34F WCI  29
A. F. ACADEMY  CLOUDY    26  17  70 N8        30.33F WCI  17
SCHRIEVER AFB  FAIR      34  20  56 W6        30.34S WCI  28
ELLICOTT       NOT AVBL
FALCON         NOT AVBL
FORT CARSON    CLOUDY    33  20  59 N5        30.32S WCI  28
LIMON          CLOUDY    31  21  66 W13       30.29S WCI  21
MONUMENT HILL  CLOUDY    30  18  59 SW13      30.34F WCI  20
TRINIDAD       CLOUDY    35  19  52 SW14      30.34F WCI  26
$$

COZ042>045-048>051-090-091-100500-
...NORTHEAST COLORADO...

CITY           SKY/WX    TMP DP  RH WIND       PRES   REMARKS
GREELEY ARPT   CLOUDY    28  27  93 CALM      30.25F
AKRON          CLEAR     39  27  62 W18       30.21F
BURLINGTON     CLEAR     33  25  72 W9        30.23F WCI  25
WRAY           CLEAR     33  29  86 W8        30.19F WCI  26
STERLING       CLEAR     36  28  75 W9        30.20S
HOLYOKE        CLEAR     43  30  61 W15G22    30.16F
FORT MORGAN    CLEAR     35  24  63 W10       30.25F WCI  28
$$

COZ086-089-092>099-100500-
...SOUTHEAST COLORADO...

CITY           SKY/WX    TMP DP  RH WIND       PRES   REMARKS
PUEBLO         CLEAR     31  23  72 NW6       30.31F WCI  25
LA JUNTA       CLEAR     40  25  55 W10G23    30.29F
LAMAR          CLEAR     31  25  78 SW10      30.26F WCI  22
SPRINGFIELD      N/A     29  22  75 VRB3      30.30S
$$



USA.gov is the U.S. government's official web portal to all federal, state and local government web resources and services.